SCP
0 0 0 0 0 0 0 0 0 0 0 0 0 0 0 0 0 0 0 0 0 0
0 0 0 0 0 0 0 0 0 0 0 0 0 0 0 0 0 0 0 0 0 0
0 0 0 0 0 0 0 0 0 0 0 0 0 0 0 0 0 0 0 0 0 0
0 0 0 0 0 0 0 0 0 0 0 0 0 0 0 0 0 0 0 0 0 0
0 0 0 0 0 0 0 0 0 0 0 0 0 0 0 0 0 0 0 0 0 0
0 0 0 0 0 0 0 0 0 0 0 0 0 0 0 0 0 0 0 0 0 0
0 0 0 0 0 0 0 0 0 0 0 0 0 0 0 0 0 0 0 0 0 0
0 0 0 0 0 0 0 0 0 0 0 0 0 0 0 0 0 0 0 0 0 0
0 0 0 0 0 0 0 0 0 0 0 0 0 0 0 0 0 0 0 0 0 0
0 0 0 0 0 0 0 0 0 0 0 0 0 0 0 0 0 0 0 0 0 0
0 0 0 0 0 0 0 0 0 0 0 0 0 0 0 0 0 0 0 0 0 0
0 0 0 0 0 0 0 0 0 0 0 0 0 0 0 0 0 0 0 0 0 0
0 0 0 0 0 0 0 0 0 0 0 0 0 0 0 0 0 0 0 0 0 0
0 0 0 0 0 0 0 0 0 0 0 0 0 0 0 0 0 0 0 0 0 0
Wind_Speed_500mb
31 32 35 35 34 39 44 37 36 37 42 48 50 54 60 59 66 63 67 72 78 81
20 24 29 33 38 42 40 40 41 47 52 59 62 63 65 53 60 56 58 57 60 66
13 18 24 29 37 44 46 48 53 56 56 53 53 52 55 53 52 55 57 57 60 62
5 11 14 19 23 27 31 33 32 32 32 33 35 38 42 46 49 53 56 59 60 62
5 2 3 7 9 12 15 17 19 20 23 26 29 33 37 41 44 48 50 52 54 59
8 7 7 8 11 15 17 18 20 21 23 26 29 33 37 41 44 48 52 56 59 63
7 8 9 10 12 13 15 17 20 21 24 27 30 33 38 43 47 51 55 59 63 67
15 16 17 15 16 17 18 19 21 23 26 29 32 36 41 46 50 55 60 63 65 69
13 14 15 18 20 22 23 25 28 31 34 35 37 40 44 50 55 57 61 66 68 70
15 18 21 24 26 28 31 34 35 38 41 42 43 46 49 52 57 61 63 65 69 74
21 24 26 28 33 34 37 40 42 44 49 52 50 52 54 58 61 65 67 67 69 72
29 34 37 39 43 46 50 51 54 56 58 61 58 60 63 65 68 73 74 72 72 73
36 41 45 49 52 56 61 64 64 63 61 62 65 61 62 63 69 75 77 76 75 75
41 44 49 51 54 57 59 63 63 66 64 63 63 63 62 62 66 69 74 77 78 78
Wind_Direction_500mb
227 236 244 251 260 266 265 259 256 262 264 268 270 272 274 275 278 276 277 278 273 275
228 234 244 250 252 253 262 270 276 277 278 278 276 274 274 271 272 272 275 278 276 275
262 254 246 247 251 258 264 269 270 271 271 271 270 270 270 275 277 276 275 276 274 275
272 254 253 258 262 262 264 267 270 273 276 277 276 275 272 272 276 277 278 279 282 283
62 358 307 279 276 277 275 279 279 281 280 278 278 278 277 277 276 277 278 279 280 281
62 33 2 339 323 315 310 302 299 297 294 292 288 287 286 285 283 282 283 284 282 281
56 32 9 353 344 338 333 332 328 321 314 311 307 303 298 296 296 294 293 292 291 290
30 22 13 6 1 357 351 347 341 336 331 326 320 315 311 308 305 303 300 299 298 296
30 24 14 9 5 360 354 351 347 342 338 335 330 326 323 320 316 315 313 313 310 306
356 348 345 346 342 337 336 336 335 333 328 328 326 322 319 316 314 313 313 313 313 312
327 325 327 328 326 324 322 323 323 323 321 319 319 315 314 311 311 311 312 313 312 310
321 321 321 321 321 321 319 319 319 319 318 316 315 311 308 306 305 304 306 308 308 310
317 316 315 316 316 316 315 314 312 310 311 312 311 311 309 306 303 303 304 305 306 306
315 315 313 313 313 312 311 310 311 310 312 311 309 307 308 306 304 305 304 304 306 305
Wind_Speed_850mb
31 32 35 35 34 39 44 37 36 37 42 48 50 54 60 59 66 63 67 72 78 81
20 24 29 33 38 42 40 40 41 47 52 59 62 63 65 53 60 56 58 57 60 66
13 18 24 29 37 44 46 48 53 56 56 53 53 52 55 53 52 55 57 57 60 62
5 11 14 19 23 27 31 33 32 32 32 33 35 38 42 46 49 53 56 59 60 62
5 2 3 7 9 12 15 17 19 20 23 26 29 33 37 41 44 48 50 52 54 59
8 7 7 8 11 15 17 18 20 21 23 26 29 33 37 41 44 48 52 56 59 63
7 8 9 10 12 13 15 17 20 21 24 27 30 33 38 43 47 51 55 59 63 67
15 16 17 15 16 17 18 19 21 23 26 29 32 36 41 46 50 55 60 63 65 69
13 14 15 18 20 22 23 25 28 31 34 35 37 40 44 50 55 57 61 66 68 70
15 18 21 24 26 28 31 34 35 38 41 42 43 46 49 52 57 61 63 65 69 74
21 24 26 28 33 34 37 40 42 44 49 52 50 52 54 58 61 65 67 67 69 72
29 34 37 39 43 46 50 51 54 56 58 61 58 60 63 65 68 73 74 72 72 73
36 41 45 49 52 56 61 64 64 63 61 62 65 61 62 63 69 75 77 76 75 75
41 44 49 51 54 57 59 63 63 66 64 63 63 63 62 62 66 69 74 77 78 78
Wind_Direction_850mb
227 236 244 251 260 266 265 259 256 262 264 268 270 272 274 275 278 276 277 278 273 275
228 234 244 250 252 253 262 270 276 277 278 278 276 274 274 271 272 272 275 278 276 275
262 254 246 247 251 258 264 269 270 271 271 271 270 270 270 275 277 276 275 276 274 275
272 254 253 258 262 262 264 267 270 273 276 277 276 275 272 272 276 277 278 279 282 283
62 358 307 279 276 277 275 279 279 281 280 278 278 278 277 277 276 277 278 279 280 281
62 33 2 339 323 315 310 302 299 297 294 292 288 287 286 285 283 282 283 284 282 281
56 32 9 353 344 338 333 332 328 321 314 311 307 303 298 296 296 294 293 292 291 290
30 22 13 6 1 357 351 347 341 336 331 326 320 315 311 308 305 303 300 299 298 296
30 24 14 9 5 360 354 351 347 342 338 335 330 326 323 320 316 315 313 313 310 306
356 348 345 346 342 337 336 336 335 333 328 328 326 322 319 316 314 313 313 313 313 312
327 325 327 328 326 324 322 323 323 323 321 319 319 315 314 311 311 311 312 313 312 310
321 321 321 321 321 321 319 319 319 319 318 316 315 311 308 306 305 304 306 308 308 310
317 316 315 316 316 316 315 314 312 310 311 312 311 311 309 306 303 303 304 305 306 306
315 315 313 313 313 312 311 310 311 310 312 311 309 307 308 306 304 305 304 304 306 305